Weather History for Monarch Pass, CO

Change the Weather History Date:

Monday, July 1, 2013

  Actual Average (KGUC) Record (KGUC)
Temperature  
Mean Temperature 50 °F -  
Max Temperature 59 °F 76 °F 87 °F (2002)
Min Temperature 41 °F 41 °F 35 °F (1997)
Degree Days  
Heating Degree Days 15    
Moisture  
Dew Point 35 °F    
Average Humidity 61    
Maximum Humidity 100    
Minimum Humidity 35    
Precipitation  
Precipitation 0.00 in - - ()
Sea Level Pressure  
Sea Level Pressure 30.78 in    
Wind  
Wind Speed 13 mph (NE)    
Max Wind Speed 31 mph    
Max Gust Speed 39 mph    
Averages and records for this station are not official NWS values.
T = Trace of Precipitation, MM = Missing Value Source: NWS Daily Summary

Daily Weather History Graph

Daily Weather History Graph

Search for Another Location

Airport:

Trip Planner

Search our weather history database for the weather conditions in past years. The results will help you decide how hot, cold, wet, or windy it might be!

Date:

Astronomy

Jul. 01, 2013 Rise Set
Actual Time 5:45 AM MDT 8:33 PM MDT
Civil Twilight 5:13 AM MDT 9:04 PM MDT
Nautical Twilight 4:33 AM MDT 9:44 PM MDT
Astronomical Twilight 3:48 AM MDT 10:29 PM MDT
Moon 1:13 AM MDT (7/1) 2:53 PM MDT (7/1)
Length of Visible Light 15h 51m
Length of Day
14h 48m
Waning Crescent, 35% of the Moon is Illuminated
Jul 1
Waning Crescent
Jul 8
New
Jul 15
First Quarter
Jul 22
Full
Jul 29
Last Quarter

Hourly Weather History & Observations

Time (MDT) Temp. Windchill Dew Point Humidity Pressure Visibility Wind Dir Wind Speed Gust Speed Precip Events Conditions
12:14 AM 42.8 °F 36.2 °F 37.4 °F 81% 30.79 in - ENE 12.7 mph - N/A   Clear
12:34 AM 44.6 °F 38.1 °F 37.4 °F 76% 30.79 in - ENE 13.8 mph - N/A   Clear
12:54 AM 44.6 °F 38.4 °F 35.6 °F 71% 30.79 in - ENE 12.7 mph - N/A   Clear
1:14 AM 44.6 °F 38.4 °F 35.6 °F 71% 30.79 in - NE 12.7 mph - N/A   Clear
1:34 AM 44.6 °F 39.7 °F 33.8 °F 66% 30.79 in - NE 9.2 mph - N/A   Clear
1:54 AM 44.6 °F 40.7 °F 33.8 °F 66% 30.79 in - NE 6.9 mph - N/A   Clear
2:14 AM 46.4 °F 42.9 °F 32.0 °F 57% 30.79 in - NNE 6.9 mph - N/A   Clear
2:34 AM 46.4 °F 44.3 °F 32.0 °F 57% 30.79 in - NNW 4.6 mph - N/A   Clear
2:54 AM 48.2 °F - 32.0 °F 54% 30.78 in - Calm Calm - N/A   Clear
3:14 AM 46.4 °F 45.2 °F 32.0 °F 57% 30.79 in - West 3.5 mph - N/A   Clear
3:34 AM 46.4 °F - 32.0 °F 57% 30.78 in - Calm Calm - N/A   Clear
3:54 AM 44.6 °F 43.1 °F 32.0 °F 61% 30.78 in - WNW 3.5 mph - N/A   Clear
4:14 AM 42.8 °F 39.3 °F 33.8 °F 70% 30.78 in - West 5.8 mph - N/A   Clear
4:34 AM 44.6 °F 40.2 °F 33.8 °F 66% 30.79 in - West 8.1 mph - N/A   Clear
4:54 AM 44.6 °F 43.1 °F 33.8 °F 66% 30.79 in - WNW 3.5 mph - N/A   Clear
5:14 AM 46.4 °F 44.3 °F 32.0 °F 57% 30.79 in - NNW 4.6 mph - N/A   Clear
5:34 AM 46.4 °F 45.2 °F 32.0 °F 57% 30.79 in - NNW 3.5 mph - N/A   Clear
5:54 AM 46.4 °F 45.2 °F 32.0 °F 57% 30.79 in - NW 3.5 mph - N/A   Clear
6:14 AM 46.4 °F 44.3 °F 30.2 °F 53% 30.79 in - NNW 4.6 mph - N/A   Clear
6:34 AM 46.4 °F - 30.2 °F 53% 30.79 in - Calm Calm - N/A   Clear
6:54 AM 48.2 °F - 28.4 °F 46% 30.79 in - Calm Calm - N/A   Clear
7:14 AM 50.0 °F - 28.4 °F 43% 30.79 in - East 5.8 mph - N/A   Clear
7:34 AM 51.8 °F - 26.6 °F 38% 30.79 in - ENE 9.2 mph - N/A   Clear
7:54 AM 51.8 °F - 24.8 °F 35% 30.80 in - ENE 10.4 mph - N/A   Clear
8:14 AM 51.8 °F - 24.8 °F 35% 30.81 in - ENE 12.7 mph - N/A   Clear
8:34 AM 51.8 °F - 26.6 °F 38% 30.81 in - ENE 13.8 mph - N/A   Clear
8:54 AM 53.6 °F - 26.6 °F 35% 30.81 in - ENE 15.0 mph - N/A   Clear
9:14 AM 53.6 °F - 26.6 °F 35% 30.81 in - ENE 13.8 mph 21.9 mph N/A   Clear
9:34 AM 53.6 °F - 28.4 °F 38% 30.81 in - East 17.3 mph - N/A   Clear
9:54 AM 53.6 °F - 30.2 °F 41% 30.80 in - ENE 17.3 mph 20.7 mph N/A   Clear
10:14 AM 53.6 °F - 30.2 °F 41% 30.80 in - ENE 16.1 mph 23.0 mph N/A   Clear
10:34 AM 53.6 °F - 30.2 °F 41% 30.80 in - ENE 17.3 mph 23.0 mph N/A   Clear
10:54 AM 55.4 °F - 28.4 °F 36% 30.79 in - ENE 17.3 mph 23.0 mph N/A   Clear
11:14 AM 55.4 °F - 30.2 °F 38% 30.79 in - ENE 18.4 mph 24.2 mph N/A   Clear
11:34 AM 55.4 °F - 32.0 °F 41% 30.79 in - East 17.3 mph - N/A   Scattered Clouds
11:54 AM 55.4 °F - 32.0 °F 41% 30.79 in - ENE 18.4 mph - N/A   Clear
12:14 PM 57.2 °F - 32.0 °F 38% 30.78 in - ENE 18.4 mph 25.3 mph N/A Thunderstorm Thunderstorm
12:34 PM 55.4 °F - 32.0 °F 41% 30.77 in - ENE 20.7 mph 27.6 mph N/A   Mostly Cloudy
12:54 PM 57.2 °F - 32.0 °F 38% 30.77 in - ENE 17.3 mph 23.0 mph N/A   Mostly Cloudy
1:14 PM 55.4 °F - 32.0 °F 41% 30.78 in - East 13.8 mph 20.7 mph N/A   Mostly Cloudy
1:34 PM 59.0 °F - 32.0 °F 36% 30.78 in - East 12.7 mph 16.1 mph N/A   Mostly Cloudy
1:54 PM 57.2 °F - 32.0 °F 38% 30.77 in - NE 16.1 mph - N/A   Mostly Cloudy
2:14 PM 59.0 °F - 32.0 °F 36% 30.77 in - East 8.1 mph - N/A   Mostly Cloudy
2:34 PM 57.2 °F - 33.8 °F 41% 30.77 in - ENE 15.0 mph 21.9 mph N/A   Mostly Cloudy
2:54 PM 59.0 °F - 35.6 °F 42% 30.76 in - ENE 17.3 mph 21.9 mph N/A   Mostly Cloudy
3:14 PM 55.4 °F - 35.6 °F 47% 30.77 in - ENE 11.5 mph - N/A   Mostly Cloudy
3:34 PM 59.0 °F - 37.4 °F 45% 30.75 in - ENE 23.0 mph 26.5 mph N/A   Mostly Cloudy
3:54 PM 53.6 °F - 41.0 °F 62% 30.74 in - ENE 31.1 mph 36.8 mph N/A   Mostly Cloudy
4:14 PM 51.8 °F - 41.0 °F 67% 30.75 in - ENE 29.9 mph - N/A   Scattered Clouds
4:34 PM 51.8 °F - 41.0 °F 67% 30.76 in - ENE 25.3 mph 34.5 mph N/A   Scattered Clouds
4:54 PM 51.8 °F - 39.2 °F 62% 30.74 in - ENE 27.6 mph 33.4 mph N/A   Scattered Clouds
5:14 PM 51.8 °F - 41.0 °F 67% 30.75 in - ENE 29.9 mph 35.7 mph N/A   Clear
5:34 PM 50.0 °F - 41.0 °F 71% 30.74 in - ENE 29.9 mph - N/A   Scattered Clouds
5:54 PM 50.0 °F - 41.0 °F 71% 30.74 in - ENE 25.3 mph - N/A Thunderstorm Thunderstorm
6:14 PM 48.2 °F - 41.0 °F 76% 30.75 in - ENE 28.8 mph 39.1 mph N/A Thunderstorm Thunderstorm
6:34 PM 46.4 °F 37.4 °F 41.0 °F 81% 30.75 in - ENE 28.8 mph - N/A Thunderstorm Thunderstorm
6:54 PM 46.4 °F 37.2 °F 42.8 °F 87% 30.75 in - ENE 29.9 mph - N/A Thunderstorm Thunderstorm
7:14 PM 44.6 °F 34.9 °F 42.8 °F 93% 30.75 in - ENE 28.8 mph - N/A   Overcast
7:34 PM 44.6 °F 35.7 °F 42.8 °F 93% 30.76 in - ENE 24.2 mph - N/A   Unknown
7:54 PM 44.6 °F 35.3 °F 42.8 °F 93% 30.75 in - ENE 26.5 mph - N/A   Unknown
8:14 PM 44.6 °F 35.5 °F 41.0 °F 87% 30.75 in - ENE 25.3 mph - N/A Thunderstorm Thunderstorm
8:34 PM 44.6 °F 35.9 °F 41.0 °F 87% 30.76 in - ENE 23.0 mph - N/A   Mostly Cloudy
8:54 PM 42.8 °F 33.1 °F 41.0 °F 93% 30.76 in - ENE 25.3 mph - N/A   Unknown
9:14 PM 42.8 °F 32.9 °F 41.0 °F 93% 30.76 in - ENE 26.5 mph - N/A   Mostly Cloudy
9:34 PM 42.8 °F 33.5 °F 42.8 °F 100% 30.77 in - ENE 23.0 mph - N/A   Overcast
9:54 PM 42.8 °F 32.7 °F 41.0 °F 93% 30.77 in - ENE 27.6 mph - N/A   Overcast
10:14 PM 42.8 °F 32.7 °F 41.0 °F 93% 30.79 in - ENE 27.6 mph - N/A   Overcast
10:34 PM 42.8 °F 33.8 °F 41.0 °F 93% 30.80 in - ENE 21.9 mph - N/A   Overcast
10:54 PM 42.8 °F 34.5 °F 41.0 °F 93% 30.80 in - ENE 18.4 mph - N/A   Overcast
11:14 PM 41.0 °F 33.9 °F 41.0 °F 100% 30.81 in - ENE 12.7 mph - N/A   Mostly Cloudy
11:34 PM 42.8 °F 39.3 °F 41.0 °F 93% 30.81 in - NNE 5.8 mph - N/A   Unknown
11:54 PM 42.8 °F 36.2 °F 41.0 °F 93% 30.80 in - North 12.7 mph - N/A   Unknown